User: anonymous   Login
Location: Alexandria
(38.8050°N, 77.0470°W)
Time: 10:52:11
(UTC-04:00)
Language:

ELECTRON R/B - Orbit

View from above orbital plane
View from above orbital plane
View from above satellite
View from above satellite

Ground track
Ground track

The orbit data is extracted from the following two-line orbital elements,

1 43166U 18010D   18140.76615952 +.00038857 -80659-6 +26354-3 0  9994
2 43166 082.9129 020.5520 0144017 136.7731 224.4940 15.61704436018621
Epoch (UTC): 20 May 2018 18:23:16
Eccentricity: 0.0144017
inclination: 82.9129°
perigee height: 285 km
apogee height: 480 km
right ascension of ascending node: 20.5520°
argument of perigee: 136.7731°
revolutions per day: 15.61704436
mean anomaly at epoch: 224.4940°
orbit number at epoch: 1862

The dashed part of the orbit path shows where the satellite is in the earth's shadow,  

DLR